TimeMDT,TemperatureF,Dew PointF,Humidity,Sea Level PressureIn,VisibilityMPH,Wind Direction,Wind SpeedMPH,Gust SpeedMPH,PrecipitationIn,Events,Conditions,WindDirDegrees,DateUTC
12:53 AM,46.0,8.1,21,29.99,10.0,Calm,Calm,-,N/A,,Clear,0,2012-10-07 06:53:00
1:53 AM,39.9,10.9,31,30.01,10.0,ESE,3.5,-,N/A,,Clear,120,2012-10-07 07:53:00
2:53 AM,37.9,10.0,32,30.01,10.0,Calm,Calm,-,N/A,,Clear,0,2012-10-07 08:53:00
3:53 AM,35.1,6.1,30,30.02,10.0,ENE,5.8,-,N/A,,Clear,60,2012-10-07 09:53:00
4:53 AM,37.9,6.1,27,30.03,10.0,ENE,8.1,-,N/A,,Clear,60,2012-10-07 10:53:00
5:53 AM,35.1,5.0,28,30.06,10.0,Calm,Calm,-,N/A,,Clear,0,2012-10-07 11:53:00
6:53 AM,32.0,6.1,34,30.09,10.0,Calm,Calm,-,N/A,,Clear,0,2012-10-07 12:53:00
7:53 AM,32.0,6.1,34,30.12,10.0,East,3.5,-,N/A,,Clear,90,2012-10-07 13:53:00
8:53 AM,42.1,15.1,34,30.12,10.0,Calm,Calm,-,N/A,,Clear,0,2012-10-07 14:53:00
9:53 AM,46.9,15.1,28,30.12,10.0,SE,3.5,-,N/A,,Clear,140,2012-10-07 15:53:00
10:53 AM,51.1,12.0,21,30.11,10.0,SSE,6.9,-,N/A,,Clear,160,2012-10-07 16:53:00
11:53 AM,55.0,10.9,17,30.09,10.0,SSE,5.8,-,N/A,,Clear,160,2012-10-07 17:53:00
12:53 PM,57.0,7.0,14,30.07,10.0,Variable,6.9,-,N/A,,Clear,0,2012-10-07 18:53:00
1:53 PM,59.0,5.0,12,30.05,10.0,Calm,Calm,-,N/A,,Clear,0,2012-10-07 19:53:00
2:53 PM,61.0,7.0,12,30.03,10.0,West,3.5,-,N/A,,Clear,270,2012-10-07 20:53:00
3:53 PM,61.0,7.0,12,30.03,10.0,Variable,5.8,-,N/A,,Clear,0,2012-10-07 21:53:00
4:53 PM,62.1,5.0,10,30.00,10.0,NW,8.1,-,N/A,,Clear,310,2012-10-07 22:53:00
5:53 PM,60.1,8.1,13,30.01,10.0,WNW,11.5,-,N/A,,Clear,290,2012-10-07 23:53:00
6:53 PM,55.9,5.0,13,30.04,10.0,North,5.8,-,N/A,,Clear,350,2012-10-08 00:53:00
7:53 PM,51.1,5.0,15,30.06,10.0,NE,9.2,-,N/A,,Clear,40,2012-10-08 01:53:00
8:53 PM,48.0,6.1,18,30.05,10.0,ESE,3.5,-,N/A,,Clear,120,2012-10-08 02:53:00
9:53 PM,45.0,8.1,22,30.05,10.0,ESE,8.1,-,N/A,,Clear,120,2012-10-08 03:53:00
10:53 PM,44.1,7.0,22,30.04,10.0,ESE,8.1,-,N/A,,Clear,120,2012-10-08 04:53:00
11:53 PM,39.9,8.1,27,30.05,10.0,East,4.6,-,N/A,,Clear,100,2012-10-08 05:53:00